User: anonymous   Login
Location: Unspecified
(39.2458°N, 0.0000°E)
Time: 02:37:54
(UTC+00:00)
Language:

Feng Yun 1-2 Rocket - Orbit

View from above orbital plane
View from above orbital plane
View from above satellite
View from above satellite

Ground track
Ground track

The orbit is defined by the following mean orbital elements,

1 20791U          26088.16147154 +.00000000 +00000-0 +99941-6 0 00003
2 20791  99.0240  53.8802 0051819 286.6604  83.7743 13.93041685    09
Epoch (UTC): 29 March 2026 03:52:31
Eccentricity: 0.0051819
inclination: 99.0240°
perigee height: 880 km
apogee height: 956 km
right ascension of ascending node: 53.8802°
argument of perigee: 286.6604°
revolutions per day: 13.93041685
mean anomaly at epoch: 83.7743°

The dashed part of the orbit path shows where the satellite is in the earth's shadow,  

DLR